Regional Weather Roundup
Issued by NWS

Home | Current Version | Previous Version | Text Only | Print | Product List | Glossary Off
Versions: 1 2 3 4 5 6 7 8 9 10 11 12 13 14 15 16 17 18 19 20 21 22 23 24 25 26 27 28 29 30 31 32 33 34 35 36 37 38 39 40 41 42 43 44 45 46 47 48 49 50

000
ASUS45 KBOU 291907
RWRCO

WEATHER ROUNDUP FOR COLORADO
NATIONAL WEATHER SERVICE DENVER/BOULDER CO
100 PM MDT TUE JUL 29 2014

NOTE: "FAIR" INDICATES FEW OR NO CLOUDS BELOW 12000 FEET WITH NO
SIGNIFICANT WEATHER AND/OR OBSTRUCTIONS TO VISIBILITY.

COZ001>005-013-030-031-292000-
...NORTHWEST COLORADO...

CITY           SKY/WX    TMP DP  RH WIND       PRES   REMARKS
CRAIG          LGT RAIN  58  58 100 SW7       30.34F
HAYDEN         CLOUDY    59  54  82 W9        30.35F
MEEKER         LGT RAIN  63  55  75 E9        30.35F
MOUNT WERNER   NOT AVBL
STEAMBOAT SPGS CLOUDY    60  56  87 W8        30.37R
WALDEN         CLOUDY    70  43  37 W7        30.36F
$$

COZ006>008-011-292000-
...WEST CENTRAL VALLEYS...

CITY           SKY/WX    TMP DP  RH WIND       PRES   REMARKS
GRAND JUNCTION PTSUNNY   73  58  59 SW3       30.23F
MONTROSE       MOSUNNY   73  59  61 CALM      30.30F
EAGLE          LGT RAIN  61  57  88 CALM      30.39F
RIFLE          CLOUDY    66  60  81 NE5       30.31F
DELTA          MOSUNNY   79  56  45 SE5       30.25F
NUCLA          MOSUNNY   75  59  57 NW3       30.33F
$$

COZ017>023-064>068-292000-
...SOUTHWEST COLORADO...

CITY           SKY/WX    TMP DP  RH WIND       PRES   REMARKS
DURANGO        MOSUNNY   75  50  41 SW6       30.33F
CORTEZ         SUNNY     79  55  43 SW9       30.29F
PAGOSA SPRINGS MOSUNNY   70  49  46 CALM      30.41F
TELLURIDE      PTSUNNY   66  54  63 W6        30.48F
WOLF CREEK PAS NOT AVBL
$$

COZ009-010-012-014-032>034-037-058>063-292000-
...CENTRAL COLORADO...

CITY           SKY/WX    TMP DP  RH WIND       PRES   REMARKS
ASPEN          LGT RAIN  58  55  90 N5        30.43F
BUENA VISTA    CLOUDY    66  49  54 S6        30.39F
COPPER MTN     CLOUDY    59  46  63 S7        30.67F
BERTHOUD PASS  CLOUDY    45  32  61 SE16      30.71F
COTTONWOOD PAS LGT RAIN  59  50  72 CALM      30.52F
GUNNISON       PTSUNNY   64  50  59 NE5       30.42F
KREMMLING      CLOUDY    70  46  43 W12G23    30.36F
LEADVILLE      CLOUDY    57  45  64 CALM      30.51F
MONARCH PASS   CLOUDY    50  43  76 SW17G25   30.76F
SALIDA         CLOUDY    71  52  50 NW9       30.42F
SUNLIGHT       CLOUDY    52  52 100 CALM      30.62F
WILKERSON PASS CLOUDY    52  46  82 MISG      30.64F
$$

COZ069>075-292000-
...SAN LUIS VALLEY/SANGRE DE CRISTO MOUNTAINS...

CITY           SKY/WX    TMP DP  RH WIND       PRES   REMARKS
ALAMOSA        MOSUNNY   71  55  56 CALM      30.36F
LA VETA PASS   MOSUNNY   63  50  63 W6        30.54F
SAGUACHE       CLOUDY    64  54  68 S5        30.40F
$$

COZ035-036-038>040-292000-
...NORTHERN COLORADO FRONT RANGE...

CITY           SKY/WX    TMP DP  RH WIND       PRES   REMARKS
DENVER INTL AP PTSUNNY   82  54  37 N6        30.19F
DMNS CITY PARK   N/A     83  55  38 N7        30.19F
AURORA         PTSUNNY   81  59  46 NW6       30.22F
FRONT RANGE AP NOT AVBL
ERIE MUNI ARPT PTSUNNY   80  53  39 N7        30.19F
BOULDER MUN AP PTSUNNY   79  54  41 N6        30.20F
CENTENNIAL     PTSUNNY   78  54  43 VRB3      30.22F
BROOMFIELD     PTSUNNY   81  55  41 E8        30.23F
FORT COLLINS   MOSUNNY   82  57  42 E13       30.19F
LONGMONT       MOSUNNY   82  58  43 N5        30.21F
$$

COZ041-046-047-076>085-087-088-292000-
...PIKES PEAK/PALMER DIVIDE AND SOUTHERN FOOTHILLS...

CITY           SKY/WX    TMP DP  RH WIND       PRES   REMARKS
COLO. SPRINGS  PTSUNNY   72  58  61 S5        30.27F
A. F. ACADEMY  PTSUNNY   73  54  51 S10       30.28F
ELLICOTT       PTSUNNY   75  58  55 E7        30.25F
FALCON         PTSUNNY   73  56  53 S8        30.32F
FORT CARSON    DRIZZLE   72  57  60 NW9       30.24F
LIMON          TSTM      76  53  44 SE12      30.21F
MONUMENT HILL  PTSUNNY   73  52  46 E3        30.30F
TRINIDAD       MOSUNNY   79  55  43 SE5       30.23F
$$

COZ042>045-048>051-090-091-292000-
...NORTHEAST COLORADO...

CITY           SKY/WX    TMP DP  RH WIND       PRES   REMARKS
GREELEY ARPT   MOSUNNY   82  59  44 E10G18    30.17F
AKRON          MOSUNNY   82  57  42 SE15G26   30.19F
BURLINGTON     PTSUNNY   83  62  49 S10G21    30.18F
WRAY             N/A     88  56  34 E10G23    30.16F
STERLING       MOSUNNY   88  61  40 E9        30.16F
HOLYOKE        SUNNY     81  61  50 E13       30.19F
FORT MORGAN    MOSUNNY   86  51  30 E10G18    30.17F
$$

COZ086-089-092>099-292000-
...SOUTHEAST COLORADO...

CITY           SKY/WX    TMP DP  RH WIND       PRES   REMARKS
PUEBLO         MOSUNNY   80  60  50 SE7       30.16F
LA JUNTA       MOSUNNY   81  62  52 E7        30.15F
LAMAR          PTSUNNY   86  62  44 S10G17    30.11F
SPRINGFIELD      N/A     81  62  52 S15       30.17F
$$



USA.gov is the U.S. government's official web portal to all federal, state and local government web resources and services.